15 daagse weersverwachting Luimneach (IE)

  • Overzicht
  • Per uur
  • 15 dagen
  • Extra
  • Vergelijk
  • Kaarten
  • Dagkaart
  • Meer »
  • Info
  • Statistieken
  • Directe link
    Temp 6h Neerslag Wind  
 08:39     16:19    Daglengte: 7:40 Vandaag
12:00
0.7 mm
7
18:00
7.1 mm
9
 08:40     16:19    Daglengte: 7:39 Morgen
00:00
9.0 mm
10
06:00
9.0 mm
11
12:00
 
9
18:00
6.9 mm
3
 08:41     16:19    Daglengte: 7:38 Zaterdag 14 Dec
00:00
15.7 mm
8
06:00
13.3 mm
9
12:00
6.7 mm
7
18:00
8.7 mm
4
 08:41     16:19    Daglengte: 7:38 Zondag 15 Dec
00:00
13.0 mm
3
06:00
18.8 mm
3
Locatie info
Region: Munster
Latitude: 52.6647°N
Longitude: -8.6231°E
7 masl
Temp/Neerslag /Baro Onweer/DauwpuntSneeuw
    Temp Baro 1h Neerslag Dauwpunt Wind UV BewolkingSneeuw  
 08:39     16:19    Daglengte: 7:40 Vandaag
12:00
Voelt als: 5.6°
982.6 hPa 0.7 mm
48%
6.6°
7
Windvlaag: 2 km/h
18%
13:00
Voelt als: 5.9°
982.0 hPa 0.5 mm
82%
6.9°
7
Windvlaag: 1.9 km/h
67%
14:00
Voelt als: 5.6°
981.0 hPa 1.3 mm
82%
6.5°
6
Windvlaag: 2.4 km/h
74%
15:00
Voelt als: 5.0°
980.0 hPa 1.3 mm
82%
7.0°
7
Windvlaag: 2.9 km/h
70%
16:00
Voelt als: 4.8°
979.0 hPa 1.2 mm
82%
6.7°
7
Windvlaag: 3.3 km/h
60%
17:00
Voelt als: 3.8°
978.5 hPa 1.6 mm
82%
5.9°
9
Windvlaag: 2.4 km/h
69%
18:00
Voelt als: 2.8°
978.1 hPa 1.2 mm
82%
4.6°
9
Windvlaag: 2.1 km/h
63%
19:00
Voelt als: 2.1°
978.3 hPa 1.5 mm
82%
4.3°
10
Windvlaag: 1.7 km/h
56%
20:00
Voelt als: 1.6°
978.3 hPa 1.5 mm
82%
3.9°
10
Windvlaag: 1.5 km/h
67%
21:00
Voelt als: 1.3°
978.6 hPa 1.5 mm
82%
2.7°
10
Windvlaag: 0.9 km/h
60%
22:00
Voelt als: 1.0°
978.8 hPa 1.6 mm
82%
3.1°
10
Windvlaag: 0.2 km/h
43%
23:00
Voelt als: 0.8°
979.1 hPa 1.4 mm
81%
2.3°
10
Windvlaag: 0.6 km/h
40%
 08:40     16:19    Daglengte: 7:39 Morgen
00:00
Voelt als: 0.5°
979.5 hPa 1.6 mm
81%
2.3°
10
Windvlaag: 0.4 km/h
52%
01:00
Voelt als: 0.3°
980.0 hPa 1.4 mm
80%
2.1°
10
Windvlaag: 0.8 km/h
57%
02:00
Voelt als: 0.2°
980.6 hPa 1.4 mm
78%
1.7°
10
Windvlaag: 0.7 km/h
29%
03:00
Voelt als: 0.2°
981.1 hPa 2.0 mm
23%
1.3°
10
Windvlaag: 0.3 km/h
40%
04:00
Voelt als: 0.3°
981.5 hPa 2.1 mm
27%
0.5°
11
Windvlaag: 0.6 km/h
40%
05:00
Voelt als: 0.7°
982.1 hPa 2.1 mm
80%
0.5°
11
Windvlaag: 0.3 km/h
32%
06:00
Voelt als: 0.7°
982.9 hPa
76%
0.7°
11
Windvlaag: 0.3 km/h
28%
07:00
Voelt als: 0.9°
983.7 hPa
22%
0.1°
11
Windvlaag: 0.2 km/h
13%
08:00
Voelt als: 1.1°
984.6 hPa
19%
0.3°
10
Windvlaag: 0.4 km/h
21%
09:00
Voelt als: 1.3°
985.6 hPa
21%
0.5°
10
Windvlaag: 0.3 km/h
19%
10:00
Voelt als: 1.6°
986.2 hPa
14%
0.6°
9
Windvlaag: 0.3 km/h
25%
11:00
Voelt als: 2.3°
986.7 hPa
14%
0.9°
9
Windvlaag: 0.7 km/h
15%
12:00
Voelt als: 2.7°
986.4 hPa
14%
0.9°
9
Windvlaag: 1.2 km/h
26%
13:00
Voelt als: 2.8°
986.1 hPa
14%
1.0°
9
Windvlaag: 1.7 km/h
44%
14:00
Voelt als: 3.2°
985.6 hPa
15%
1.1°
7
Windvlaag: 2 km/h
76%
15:00
Voelt als: 3.0°
984.7 hPa
68%
1.4°
6
Windvlaag: 2.9 km/h
61%
16:00
Voelt als: 2.5°
984.0 hPa 2.2 mm
82%
2.2°
5
Windvlaag: 3.4 km/h
79%
17:00
Voelt als: 2.6°
983.5 hPa 2.1 mm
82%
2.9°
4
Windvlaag: 3.3 km/h
89%
18:00
Voelt als: 2.2°
982.7 hPa 2.6 mm
82%
3.1°
3
Windvlaag: -0.8 km/h
90%
19:00
Voelt als: 1.7°
982.6 hPa 2.6 mm
82%
3.4°
4
Windvlaag: -1.1 km/h
85%
20:00
Voelt als: 1.0°
983.0 hPa 2.8 mm
82%
3.2°
5
Windvlaag: -1.1 km/h
77%
21:00
Voelt als: 1.0°
983.6 hPa 3.8 mm
82%
2.8°
5
Windvlaag: -0.6 km/h
49%
22:00
Voelt als: 0.6°
983.9 hPa 2.7 mm
82%
2.1°
7
Windvlaag: 2.1 km/h
42%
23:00
Voelt als: 0.7°
984.1 hPa 3.7 mm
82%
1.1°
8
Windvlaag: 1.7 km/h
16%
 08:41     16:19    Daglengte: 7:38 Zaterdag 14 Dec
00:00
Voelt als: 0.5°
984.5 hPa
15%
1.1°
8
Windvlaag: 1.8 km/h
29%
01:00
Voelt als: 0.0°
984.9 hPa
16%
0.3°
8
Windvlaag: 2.9 km/h
39%
02:00
Voelt als: -0.3°
985.3 hPa
74%
1.1°
8
Windvlaag: 3 km/h
39%
03:00
Voelt als: -0.7°
985.6 hPa 3.7 mm
74%
0.9°
8
Windvlaag: 2.8 km/h
49%
04:00
Voelt als: -0.6°
985.7 hPa 2.7 mm
81%
0.1°
7
Windvlaag: 2.5 km/h
47%
05:00
Voelt als: -1.0°
985.9 hPa 2.8 mm
78%
0.7°
8
Windvlaag: 2.8 km/h
31%
06:00
Voelt als: -1.7°
986.3 hPa 4.1 mm
73%
0.4°
9
Windvlaag: 3.3 km/h
38%
07:00
Voelt als: -2.0°
986.7 hPa 2.8 mm
78%
-0.2°
8
Windvlaag: 2.7 km/h
22%
08:00
Voelt als: -1.6°
987.3 hPa 3.9 mm
71%
-0.3°
8
Windvlaag: 2.6 km/h
28%
09:00
Voelt als: -1.0°
987.8 hPa
85%
-2.7°
7
Windvlaag: 2.9 km/h
55%
10:00
Voelt als: -0.4°
988.5 hPa
81%
-1.7°
8
Windvlaag: 2.9 km/h
14%
11:00
Voelt als: 0.1°
988.8 hPa
80%
-1.4°
9
Windvlaag: 2.7 km/h
30%
12:00
Voelt als: 1.2°
988.3 hPa
25%
-1.2°
7
Windvlaag: 2.3 km/h
70%
13:00
Voelt als: 1.5°
987.6 hPa
22%
-0.2°
6
Windvlaag: 2.1 km/h
81%
14:00
Voelt als: 0.9°
986.8 hPa
79%
0.7°
5
Windvlaag: 1.9 km/h
83%
15:00
Voelt als: 0.8°
985.8 hPa 4.3 mm
100%
2.3°
3
Windvlaag: 1.6 km/h
97%
16:00
Voelt als: 0.4°
985.0 hPa 4.4 mm
100%
2.0°
3
Windvlaag: 1.6 km/h
98%
17:00
Voelt als: 0.1°
984.7 hPa
100%
2.1°
4
Windvlaag: 2.2 km/h
100%
18:00
Voelt als: -0.4°
984.6 hPa
95%
1.6°
4
Windvlaag: 2.5 km/h
99%1 cm
19:00
Voelt als: -1.1°
984.4 hPa 3.3 mm
97%
1.2°
4
Windvlaag: 2.5 km/h
83%1 cm
20:00
Voelt als: -1.6°
984.3 hPa 5.1 mm
88%
1.1°
4
Windvlaag: 3.2 km/h
94%2 cm
21:00
Voelt als: -1.5°
984.3 hPa 4.6 mm
85%
1.2°
5
Windvlaag: 4.4 km/h
68%2 cm
22:00
Voelt als: -1.6°
984.5 hPa
82%
1.3°
5
Windvlaag: 2.3 km/h
52%2 cm
23:00
Voelt als: -1.7°
985.7 hPa
81%
0.6°
4
Windvlaag: 0.1 km/h
24%2 cm
 08:41     16:19    Daglengte: 7:38 Zondag 15 Dec
00:00
Voelt als: -1.7°
985.9 hPa
75%
0.2°
3
Windvlaag: 0 km/h
76%2 cm
01:00
Voelt als: -2.0°
985.7 hPa
70%
0.2°
4
Windvlaag: 4.9 km/h
71%2 cm
02:00
Voelt als: -1.7°
985.6 hPa
25%
0.3°
4
Windvlaag: 5.3 km/h
52%2 cm
03:00
Voelt als: -1.4°
985.4 hPa
24%
0.5°
4
Windvlaag: 6 km/h
78%2 cm
04:00
Voelt als: -1.2°
985.2 hPa
27%
0.8°
4
Windvlaag: 6.4 km/h
93%2 cm
05:00
Voelt als: -1.3°
984.9 hPa 9.1 mm
98%
0.8°
4
Windvlaag: 6.8 km/h
96%2 cm
06:00
Voelt als: -0.7°
984.5 hPa 9.8 mm
100%
0.7°
3
Windvlaag: 2.7 km/h
93%3 cm
07:00
Voelt als: -0.9°
984.3 hPa 9.8 mm
100%
1.0°
4
Windvlaag: 12.8 km/h
84%3 cm
08:00
Voelt als: -0.9°
984.4 hPa 9.5 mm
100%
1.0°
4
Windvlaag: 14 km/h
60%3 cm
09:00
Voelt als: -0.9°
984.5 hPa
33%
1.0°
4
Windvlaag: 13.3 km/h
58%3 cm
10:00
Voelt als: 0.3°
984.7 hPa
21%
1.8°
5
Windvlaag: 12.9 km/h
62%3 cm
11:00
Voelt als: 0.4°
984.8 hPa
21%
2.0°
5
Windvlaag: 12.4 km/h
73%3 cm
Temp/Neerslag /Baro Onweer/DauwpuntSneeuw
    Temp Baro Neerslag Dauwpunt Wind BewolkingSneeuw  
 08:39     16:19    Daglengte: 7:40 Vandaag
12:00
Voelt als: 5.6°
982.6 hPa 0.7 mm 6.6°
7
18%
15:00
Voelt als: 5.0°
980.0 hPa 3.1 mm 7.0°
7
70%
18:00
Voelt als: 2.8°
978.1 hPa 4.0 mm 4.6°
9
63%
21:00
Voelt als: 1.3°
978.6 hPa 4.5 mm 2.7°
10
60%
 08:40     16:19    Daglengte: 7:39 Morgen
00:00
Voelt als: 0.5°
979.5 hPa 4.5 mm 2.3°
10
52%
03:00
Voelt als: 0.2°
981.1 hPa 4.8 mm 1.3°
10
40%
06:00
Voelt als: 0.7°
982.9 hPa 4.2 mm 0.7°
11
28%
09:00
Voelt als: 1.3°
985.6 hPa   0.5°
10
19%
12:00
Voelt als: 2.7°
986.4 hPa   0.9°
9
26%
15:00
Voelt als: 3.0°
984.7 hPa   1.4°
6
61%
18:00
Voelt als: 2.2°
982.7 hPa 6.9 mm 3.1°
3
90%
21:00
Voelt als: 1.0°
983.6 hPa 9.3 mm 2.8°
5
49%
 08:41     16:19    Daglengte: 7:38 Zaterdag 14 Dec
00:00
Voelt als: 0.5°
984.5 hPa 6.4 mm 1.1°
8
29%
03:00
Voelt als: -0.7°
985.6 hPa 3.7 mm 0.9°
8
49%
06:00
Voelt als: -1.7°
986.3 hPa 9.6 mm 0.4°
9
38%
09:00
Voelt als: -1.0°
987.8 hPa 6.7 mm -2.7°
7
55%
12:00
Voelt als: 1.2°
988.3 hPa   -1.2°
7
70%
15:00
Voelt als: 0.8°
985.8 hPa 4.3 mm 2.3°
3
97%
18:00
Voelt als: -0.4°
984.6 hPa 4.4 mm 1.6°
4
99%1 cm
21:00
Voelt als: -1.5°
984.3 hPa 13.0 mm 1.2°
5
68%2 cm
 08:41     16:19    Daglengte: 7:38 Zondag 15 Dec
00:00
Voelt als: -1.7°
985.9 hPa   0.2°
3
76%2 cm
03:00
Voelt als: -1.4°
985.4 hPa   0.5°
4
78%2 cm
06:00
Voelt als: -0.7°
984.5 hPa 18.8 mm 0.7°
3
93%3 cm
09:00
Voelt als: -0.9°
984.5 hPa 19.3 mm 1.0°
4
58%3 cm
12:00
Voelt als: 0.4°
984.7 hPa   2.0°
5
70%3 cm
15:00
Voelt als: 0.5°
983.5 hPa 18.1 mm 1.8°
5
74%
18:00
Voelt als: -0.1°
983.2 hPa 18.1 mm 1.1°
5
72%
21:00
Voelt als: 0.3°
985.7 hPa 18.2 mm 1.9°
5
76%
 08:42     16:19    Daglengte: 7:37 Maandag 16 Dec
00:00
Voelt als: 0.8°
988.3 hPa 18.3 mm 2.5°
4
80%
03:00
Voelt als: -0.6°
990.6 hPa 18.8 mm 1.3°
3
80%
06:00
Voelt als: -1.4°
993.0 hPa 19.2 mm -0.0°
2
79% warningclass
09:00
Voelt als: 0.4°
995.2 hPa 19.2 mm 1.2°
2
47%
12:00
Voelt als: 2.3°
997.4 hPa 19.2 mm 2.7°
2
16%
15:00
Voelt als: 1.1°
998.2 hPa 19.3 mm 1.9°
2
19%
18:00
Voelt als: -0.4°
999.0 hPa 19.5 mm 0.9°
2
21%
21:00
Voelt als: -2.3°
999.8 hPa 19.5 mm -0.8°
2
16% warningclass
 08:43     16:20    Daglengte: 7:37 Dinsdag 17 Dec
00:00
-2°
Voelt als: -4.1°
1000.5 hPa 19.5 mm -2.4°
2
10% warningclass
03:00
-2°
Voelt als: -4.3°
1000.6 hPa 19.5 mm -2.8°
2
13% warningclass
06:00
-2°
Voelt als: -4.4°
1000.7 hPa 19.5 mm -3.1°
2
17% warningclass
09:00
Voelt als: -1.2°
1001.1 hPa 19.5 mm -0.9°
1
14% warningclass
12:00
Voelt als: 1.9°
1001.4 hPa 19.6 mm 1.4°
1
12%
15:00
Voelt als: -0.1°
1001.3 hPa 20.6 mm 0.9°
2
22%
18:00
Voelt als: -1.5°
1001.3 hPa 21.8 mm 0.2°
2
33% warningclass
21:00
-0°
Voelt als: -2.6°
1001.5 hPa 21.9 mm -0.7°
2
17% warningclass
 08:44     16:20    Daglengte: 7:36 Woensdag 18 Dec
00:00
-1°
Voelt als: -3.6°
1001.7 hPa 22.0 mm -1.6°
2
0% warningclass
03:00
Voelt als: -3.5°
1000.8 hPa 22.0 mm -0.6°
3
45% warningclass
06:00
Voelt als: -3.2°
999.8 hPa 22.0 mm 0.2°
4
90% warningclass
09:00
Voelt als: -0.7°
997.2 hPa 23.7 mm 2.3°
6
91%
12:00
Voelt als: 1.9°
994.6 hPa 24.8 mm 4.2°
7
92%
15:00
Voelt als: 3.3°
991.1 hPa 26.5 mm 5.4°
6
92%
18:00
Voelt als: 4.2°
987.7 hPa 26.6 mm 6.3°
5
92%
21:00
Voelt als: 4.9°
986.1 hPa 26.6 mm 6.8°
5
92%
 08:44     16:20    Daglengte: 7:36 Donderdag 19 Dec
00:00
Voelt als: 5.7°
984.4 hPa 26.6 mm 7.3°
4
92%
03:00
Voelt als: 5.3°
982.8 hPa 26.7 mm 7.0°
4
91%
06:00
Voelt als: 4.8°
981.4 hPa 26.7 mm 6.7°
4
90%
09:00
Voelt als: 5.5°
982.2 hPa   6.9°
4
85%
12:00
Voelt als: 6.3°
982.9 hPa 53.6 mm 7.2°
4
80%
18:00
Voelt als: 3.2°
975.9 hPa 53.9 mm 5.1°
6
92%
 08:45     16:21    Daglengte: 7:36 Vrijdag 20 Dec
00:00
Voelt als: 4.0°
964.1 hPa 54.4 mm 6.1°
8
90%
06:00
Voelt als: 4.1°
959.4 hPa 55.4 mm 6.5°
6
92%
12:00
Voelt als: 4.2°
967.5 hPa 55.5 mm 6.8°
7
91%
18:00
Voelt als: 3.4°
974.0 hPa 55.5 mm 5.3°
6
88%
 08:45     16:21    Daglengte: 7:36 Zaterdag 21 Dec
00:00
Voelt als: 2.9°
978.6 hPa 56.6 mm 4.4°
4
44%
06:00
Voelt als: 1.7°
980.5 hPa 57.2 mm 3.9°
4
52%
12:00
Voelt als: 4.7°
982.2 hPa 59.0 mm 5.4°
4
55%
18:00
Voelt als: 3.6°
984.2 hPa 59.3 mm 4.9°
3
90%
 08:46     16:22    Daglengte: 7:36 Zondag 22 Dec
00:00
10°
Voelt als: 6.4°
998.3 hPa 62.5 mm 8.7°
8
1%
06:00
Voelt als: 2.8°
995.2 hPa 1.6 mm 4.3°
5
61%
12:00
Voelt als: 4.2°
997.9 hPa 0.8 mm 4.8°
6
48%
18:00
Voelt als: 3.1°
998.6 hPa 1.0 mm 4.3°
5
43%
 08:46     16:22    Daglengte: 7:36 Maandag 23 Dec
00:00
Voelt als: 2.9°
997.9 hPa 1.5 mm 4.2°
5
59%
06:00
Voelt als: 2.2°
996.3 hPa 1.5 mm 3.7°
5
57%
12:00
Voelt als: 4.1°
997.1 hPa 1.2 mm 4.3°
4
55%
18:00
Voelt als: 3.4°
996.3 hPa 0.9 mm 3.9°
4
56%
 08:47     16:23    Daglengte: 7:36 Dinsdag 24 Dec
00:00
Voelt als: 3.1°
996.5 hPa 1.4 mm 3.8°
4
60%
06:00
Voelt als: 2.0°
996.5 hPa 0.7 mm 2.9°
4
53%
12:00
Voelt als: 4.4°
999.3 hPa 0.4 mm 4.1°
3
43%
18:00
Voelt als: 2.8°
1000.9 hPa 1.0 mm 2.8°
2
42%
 08:47     16:23    Daglengte: 7:36 Woensdag 25 Dec
00:00
Voelt als: 2.0°
1003.1 hPa 0.4 mm 2.2°
2
41%
06:00
Voelt als: 2.9°
1004.9 hPa 0.7 mm 2.1°
1
40%
12:00
Voelt als: 5.1°
1008.1 hPa 0.2 mm 3.2°
2
31%
18:00
Voelt als: 2.1°
1009.9 hPa 0.2 mm 2.0°
2
38%
 08:47     16:24    Daglengte: 7:37 Donderdag 26 Dec
00:00
Voelt als: 0.9°
1010.4 hPa 0.8 mm 1.8°
3
52%
06:00
Voelt als: 2.2°
1008.8 hPa 1.6 mm 2.8°
2
61%
12:00
Voelt als: 4.7°
1008.6 hPa 0.6 mm 4.0°
2
61%
18:00
Voelt als: 3.2°
1006.1 hPa 1.2 mm 3.6°
3
60%
 08:47     16:25    Daglengte: 7:38 Vrijdag 27 Dec
00:00
Voelt als: 2.7°
1004.8 hPa 2.3 mm 3.5°
3
61%
06:00
Voelt als: 2.3°
1004.9 hPa 1.7 mm 2.5°
2
65%
  CAPE Lifted Index Hail Supercell Tornado SRH 3km CL BTM PRES CL TOP PRES Swiss DWD icon SMHI TS
 08:39     16:19    Daglengte: 7:40 Vandaag
12:00 105 J/kg 0.3 K 0 % 0 % 0 % 0 m²/s² 0 0 2.4 2
13:00 174 J/kg -0.1 K 0 % 0 % 0 % 0 m²/s² 0 0 0.38 3
14:00 165 J/kg 0.4 K 0 % 0 % 0 % 0 m²/s² 0 0 0.97 61
15:00 231 J/kg 1.2 K 0 % 0 % 0 % 0 m²/s² 0 0 1.65 80
16:00 246 J/kg 1.7 K 0 % 0 % 0 % 0 m²/s² 0 0 2.3 80
17:00 85 J/kg 2.1 K 0 % 0 % 0 % 0 m²/s² 0 0 2.7 2
18:00 94 J/kg 3.2 K 0 % 0 % 0 % 0 m²/s² 0 0 4.1 80
19:00 157 J/kg 3.9 K 0 % 0 % 0 % 0 m²/s² 0 0 5.1 80
20:00 174 J/kg 2.5 K 0 % 0 % 0 % 0 m²/s² 0 0 2.92 3
21:00 97 J/kg 4.0 K 0 % 0 % 0 % 0 m²/s² 0 0 4.63 3
22:00 111 J/kg 4.6 K 0 % 0 % 0 % 0 m²/s² 0 0 5.56 2
23:00 48 J/kg 6.5 K 0 % 0 % 0 % 0 m²/s² 0 0 11.33 2
 08:40     16:19    Daglengte: 7:39 Morgen
00:00 57 J/kg 6.5 K 0 % 0 % 0 % 0 m²/s² 0 0 8.36 2
01:00 33 J/kg 6.8 K 0 % 0 % 0 % 0 m²/s² 0 0 8.51 2
02:00 11 J/kg 8.5 K 0 % 0 % 0 % 0 m²/s² 0 0 11.74 2
03:00 38 J/kg 9.0 K 0 % 0 % 0 % 0 m²/s² 0 0 9.75 2
04:00 76 J/kg 10.5 K 0 % 0 % 0 % 0 m²/s² 0 0 11.94 2
05:00 98 J/kg 10.9 K 0 % 0 % 0 % 0 m²/s² 0 0 12.61 61
06:00 92 J/kg 11.2 K 0 % 0 % 0 % 0 m²/s² 0 0 14.74 61
07:00 31 J/kg 12.2 K 0 % 0 % 0 % 0 m²/s² 0 0 14.78 2
08:00 21 J/kg 12.0 K 0 % 0 % 0 % 0 m²/s² 0 0 15.24 2
09:00 20 J/kg 11.9 K 0 % 0 % 0 % 0 m²/s² 0 0 16.46 2
10:00 16 J/kg 11.7 K 0 % 0 % 0 % 0 m²/s² 0 0 16.53 1
11:00 17 J/kg 11.6 K 0 % 0 % 0 % 0 m²/s² 0 0 17.87 1
12:00 16 J/kg 11.6 K 0 % 0 % 0 % 0 m²/s² 0 0 15.59 2
13:00 16 J/kg 11.4 K 0 % 0 % 0 % 0 m²/s² 0 0 13.2 2
14:00 6 J/kg 11.5 K 0 % 0 % 0 % 0 m²/s² 0 0 12.07 3
15:00 1 J/kg 11.4 K 0 % 0 % 0 % 0 m²/s² 0 0 11.94 2
16:00 0 J/kg 11.5 K 0 % 0 % 0 % 0 m²/s² 0 0 12.07 61
17:00 3 J/kg 11.5 K 0 % 0 % 0 % 0 m²/s² 0 0 11.89 61
18:00 3 J/kg 9.7 K 0 % 0 % 0 % 0 m²/s² 0 0 10.39 61
19:00 10 J/kg 10.3 K 0 % 0 % 0 % 0 m²/s² 0 0 10.75 61
20:00 3 J/kg 10.4 K 0 % 0 % 0 % 0 m²/s² 0 0 10.79 61
21:00 0 J/kg 10.8 K 0 % 0 % 0 % 0 m²/s² 0 0 13.2 61
22:00 0 J/kg 10.0 K 0 % 0 % 0 % 0 m²/s² 0 0 13 80
23:00 81 J/kg 11.0 K 0 % 0 % 0 % 0 m²/s² 0 0 15.23 80
 08:41     16:19    Daglengte: 7:38 Zaterdag 14 Dec
00:00 72 J/kg 11.4 K 0 % 0 % 0 % 0 m²/s² 0 0 13.8 2
01:00 56 J/kg 12.2 K 0 % 0 % 0 % 0 m²/s² 0 0 15.77 2
02:00 40 J/kg 12.0 K 0 % 0 % 0 % 0 m²/s² 0 0 14.85 2
03:00 56 J/kg 10.9 K 0 % 0 % 0 % 0 m²/s² 0 0 12.37 2
04:00 84 J/kg 9.0 K 0 % 0 % 0 % 0 m²/s² 0 0 9.9 2
05:00 242 J/kg 6.9 K 0 % 0 % 0 % 0 m²/s² 0 0 7.83 2
06:00 135 J/kg 8.5 K 0 % 0 % 0 % 0 m²/s² 0 0 10.78 2
07:00 131 J/kg 8.2 K 0 % 0 % 0 % 0 m²/s² 0 0 9.67 2
08:00 85 J/kg 7.3 K 0 % 0 % 0 % 0 m²/s² 0 0 9.16 2
09:00 71 J/kg 5.7 K 0 % 0 % 0 % 0 m²/s² 0 0 7.44 2
10:00 41 J/kg 5.0 K 0 % 0 % 0 % 0 m²/s² 0 0 6.38 2
11:00 67 J/kg 3.3 K 0 % 0 % 0 % 0 m²/s² 0 0 4.5 2
12:00 1 J/kg 2.6 K 0 % 0 % 0 % 0 m²/s² 0 0 3.32 2
13:00 0 J/kg 2.8 K 0 % 0 % 0 % 0 m²/s² 0 0 4.78 3
14:00 27 J/kg 1.4 K 0 % 0 % 0 % 0 m²/s² 0 0 2.45 3
15:00 80 J/kg 1.6 K 0 % 0 % 0 % 0 m²/s² 0 0 2.23 61
16:00 64 J/kg 3.7 K 0 % 0 % 0 % 0 m²/s² 0 0 4.36 61
17:00 0 J/kg 4.7 K 0 % 0 % 0 % 0 m²/s² 0 0 5.36 61
18:00 0 J/kg 2.8 K 0 % 0 % 0 % 0 m²/s² 0 0 3.55 3
19:00 0 J/kg 0.6 K 0 % 0 % 0 % 0 m²/s² 0 0 4.44 3
20:00 0 J/kg -0.4 K 0 % 0 % 0 % 0 m²/s² 0 0 3.71 3
21:00 15 J/kg -1.1 K 0 % 0 % 0 % 0 m²/s² 0 0 1.21 3
22:00 13 J/kg -1.0 K 0 % 0 % 0 % 0 m²/s² 0 0 0.05 3
23:00 0 J/kg 0.3 K 0 % 0 % 0 % 0 m²/s² 0 0 0.78 2
 08:41     16:19    Daglengte: 7:38 Zondag 15 Dec
00:00 2 J/kg -2.3 K 0 % 0 % 0 % 0 m²/s² 0 0 -0.41 2
01:00 402 J/kg -2.3 K 0 % 0 % 0 % 0 m²/s² 0 0 -0.53 2
02:00 273 J/kg -1.7 K 0 % 0 % 0 % 0 m²/s² 0 0 0.07 2
03:00 278 J/kg -1.8 K 0 % 0 % 0 % 0 m²/s² 0 0 1.95 3
04:00 152 J/kg -1.5 K 0 % 0 % 0 % 0 m²/s² 0 0 0.84 3
05:00 0 J/kg 1.0 K 0 % 0 % 0 % 0 m²/s² 0 0 2.08 61
06:00 0 J/kg -1.2 K 0 % 0 % 0 % 0 m²/s² 0 0 1.11 80
07:00 0 J/kg -1.0 K 0 % 0 % 0 % 0 m²/s² 0 0 1.67 61
08:00 0 J/kg -0.9 K 0 % 0 % 0 % 0 m²/s² 0 0 3.15 61
09:00 0 J/kg -0.8 K 0 % 0 % 0 % 0 m²/s² 0 0 3.82 2
10:00 0 J/kg -0.8 K 0 % 0 % 0 % 0 m²/s² 0 0 5.2 2
11:00 0 J/kg -0.9 K 0 % 0 % 0 % 0 m²/s² 0 0 -0.36 2
Temp Baro Wind Neerslag
  EWN Forecast EWN WRFDA DWD ICON FMI HIRLAM MET Norway GFS
 08:39     16:19    Daglengte: 7:40 Vandaag
12:00 9.0° 982.6 hPa 7.3 m/s 0.7 mm 10.0° 981.7 hPa 9.1 m/s 2.4 mm 9.2° 981.9 hPa 7.8 m/s 0.3 mm 9.8° 982.3 hPa 7.7 m/s 0.0 mm 8.5° 983.2 hPa 6.0 m/s 9.0° 982.7 hPa 5.7 m/s
15:00 8.5° 980.0 hPa 7.2 m/s 3.1 mm 9.2° 978.2 hPa 7.4 m/s 9.7 mm 8.4° 979.7 hPa 7.2 m/s 1.9 mm 9.8° 979.1 hPa 7.5 m/s 0.0 mm 7.9° 980.9 hPa 6.1 m/s 8.3° 979.3 hPa 5.9 m/s
18:00 7.2° 978.1 hPa 9.0 m/s 4.0 mm 6.9° 976.8 hPa 7.8 m/s 14.3 mm 7.2° 977.6 hPa 10.8 m/s 1.0 mm 8.4° 978.2 hPa 9.8 m/s 0.0 mm 6.5° 979.3 hPa 8.7 m/s 6.7° 978.1 hPa 8.7 m/s
21:00 6.3° 978.6 hPa 9.9 m/s 4.5 mm 6.5° 978.0 hPa 13.2 m/s 20.2 mm 6.1° 978.2 hPa 10.4 m/s 1.2 mm 6.6° 979.1 hPa 9.8 m/s 0.0 mm 5.7° 979.0 hPa 7.7 m/s 5.8° 979.6 hPa 9.8 m/s
 08:40     16:19    Daglengte: 7:39 Morgen
00:00 5.7° 979.5 hPa 10.1 m/s 4.5 mm 5.5° 979.3 hPa 11.2 m/s 24.3 mm 5.7° 979.0 hPa 10.7 m/s 1.0 mm 6.0° 979.8 hPa 10.8 m/s 0.0 mm 4.8° 979.9 hPa 8.6 m/s 4.2° 981.3 hPa 8.8 m/s
03:00 5.5° 981.1 hPa 10.4 m/s 4.8 mm 4.7° 981.1 hPa 10.7 m/s 25.1 mm 5.4° 981.1 hPa 11.0 m/s 0.4 mm 5.0° 980.9 hPa 10.3 m/s 0.0 mm 5.5° 981.2 hPa 9.3 m/s 4.0° 982.9 hPa 8.3 m/s
06:00 6.0° 982.9 hPa 10.6 m/s 4.2 mm 5.2° 983.0 hPa 11.1 m/s 29.7 mm 6.4° 982.0 hPa 12.2 m/s 0.2 mm 5.9° 982.7 hPa 10.8 m/s 0.0 mm 5.8° 983.6 hPa 8.4 m/s 4.2° 984.7 hPa 8.2 m/s
09:00 6.2° 985.6 hPa 9.6 m/s 0.0 mm 6.0° 985.5 hPa 10.6 m/s 31.4 mm 6.4° 985.8 hPa 10.5 m/s 0.0 mm 6.2° 985.1 hPa 9.3 m/s 0.0 mm 5.8° 986.2 hPa 6.9 m/s 4.8° 987.0 hPa 8.0 m/s
12:00 7.1° 986.4 hPa 8.9 m/s 0.0 mm 7.1° 987.3 hPa 10.4 m/s 31.6 mm 7.1° 986.6 hPa 10.1 m/s 0.0 mm 6.7° 986.0 hPa 8.5 m/s 0.0 mm 7.1° 986.5 hPa 6.4 m/s 6.0° 988.4 hPa 7.7 m/s
15:00 6.6° 984.7 hPa 6.0 m/s 0.0 mm 7.1° 986.1 hPa 7.4 m/s 31.6 mm 6.7° 985.3 hPa 6.9 m/s 0.0 mm 6.6° 985.0 hPa 6.6 m/s 0.0 mm 6.6° 984.6 hPa 5.2 m/s 5.7° 987.6 hPa 4.7 m/s
18:00 5.0° 982.7 hPa 3.4 m/s 6.9 mm 5.1° 982.6 hPa 3.0 m/s 31.8 mm 4.9° 981.7 hPa 2.3 m/s 2.1 mm 5.0° 984.4 hPa 4.4 m/s 0.0 mm 5.4° 983.7 hPa 3.8 m/s 3.8° 983.5 hPa 2.3 m/s
21:00 4.8° 983.6 hPa 5.1 m/s 9.3 mm 4.3° 982.1 hPa 2.7 m/s 45.8 mm 4.5° 983.1 hPa 3.5 m/s 1.3 mm 5.0° 985.1 hPa 6.8 m/s 0.0 mm 5.2° 984.3 hPa 6.0 m/s 4.0° 983.1 hPa 2.7 m/s
 08:41     16:19    Daglengte: 7:38 Zaterdag 14 Dec
00:00 5.4° 984.5 hPa 8.5 m/s 6.4 mm 5.4° 984.0 hPa 9.6 m/s 51.9 mm 5.6° 984.2 hPa 10.0 m/s 0.9 mm 4.9° 985.3 hPa 6.7 m/s 0.0 mm 5.3° 985.1 hPa 7.2 m/s 4.2° 985.9 hPa 7.5 m/s
03:00 4.3° 985.6 hPa 7.7 m/s 3.7 mm 3.0° 984.7 hPa 5.3 m/s 53.5 mm 4.2° 985.7 hPa 9.7 m/s 0.1 mm 5.3° 985.8 hPa 7.1 m/s 0.0 mm 3.5° 986.3 hPa 7.4 m/s 2.9° 986.8 hPa 5.4 m/s
06:00 3.7° 986.3 hPa 8.5 m/s 9.6 mm 3.9° 985.5 hPa 9.9 m/s 54.9 mm 3.5° 986.3 hPa 10.7 m/s 0.5 mm 3.8° 986.7 hPa 6.1 m/s 0.0 mm 2.9° 987.1 hPa 7.0 m/s 2.9° 988.1 hPa 8.3 m/s
09:00 3.9° 987.8 hPa 7.4 m/s 6.7 mm 2.8° 986.8 hPa 5.5 m/s 56.2 mm 3.6° 987.9 hPa 9.7 m/s 0.2 mm 3.9° 988.8 hPa 6.6 m/s 0.9° 989.5 hPa 5.0 m/s
12:00 5.6° 988.3 hPa 7.1 m/s 0.0 mm 3.3° 986.8 hPa 6.9 m/s 56.7 mm 5.5° 988.5 hPa 8.1 m/s 0.0 mm 5.7° 989.0 hPa 4.8 m/s 3.7° 989.3 hPa 5.4 m/s
15:00 3.8° 985.8 hPa 3.4 m/s 4.3 mm 3.6° 983.3 hPa 3.1 m/s 57.7 mm 4.7° 986.7 hPa 4.3 m/s 0.2 mm 2.4° 985.8 hPa 2.3 m/s 3.6° 986.0 hPa 2.5 m/s
18:00 3.1° 984.6 hPa 3.7 m/s 4.4 mm 0.6° 981.2 hPa 3.9 m/s 60.8 mm 2.6° 983.9 hPa 2.1 m/s 0.6 mm 3.3° 984.9 hPa 4.5 m/s 0.7° 983.0 hPa 1.5 m/s
21:00 2.8° 984.3 hPa 5.2 m/s 13.0 mm 2.6° 982.4 hPa 6.0 m/s 64.5 mm 3.2° 984.1 hPa 5.4 m/s 0.3 mm 2.6° 986.0 hPa 4.5 m/s 1.4° 984.9 hPa 4.4 m/s
 08:41     16:19    Daglengte: 7:38 Zondag 15 Dec
00:00 1.7° 985.9 hPa 3.3 m/s 0.0 mm 2.2° 981.8 hPa 2.6 m/s 69.4 mm 2.9° 984.6 hPa 4.5 m/s 0.2 mm 1.1° 986.4 hPa 3.4 m/s 0.1° 985.6 hPa 4.3 m/s
03:00 2.1° 985.4 hPa 3.6 m/s 0.0 mm 4.1° 983.0 hPa 5.9 m/s 76.4 mm 2.2° 985.4 hPa 2.0 m/s 0.0 mm 2.2° 985.3 hPa 3.6 m/s 1.9° 985.9 hPa 4.4 m/s
06:00 2.0° 984.5 hPa 2.6 m/s 18.8 mm 1.9° 984.1 hPa 1.7 m/s 80.7 mm 1.6° 984.3 hPa 0.9 m/s 0.8 mm 3.2° 984.3 hPa 3.9 m/s 0.6° 986.7 hPa 4.0 m/s
09:00 2.9° 984.5 hPa 4.1 m/s 19.3 mm 1.5° 984.2 hPa 5.0 m/s 83.9 mm 1.3° 986.7 hPa 1.7 m/s 1.0 mm 4.3° 984.0 hPa 4.5 m/s 0.2° 987.1 hPa 4.1 m/s
12:00 4.3° 984.7 hPa 5.1 m/s 0.0 mm 3.0° 984.5 hPa 9.2 m/s 84.8 mm 3.2° 988.6 hPa 2.7 m/s 0.0 mm 5.4° 983.6 hPa 5.1 m/s 3.0° 986.9 hPa 4.4 m/s
15:00 4.4° 983.5 hPa 5.1 m/s 18.1 mm 4.5° 983.3 hPa 5.2 m/s 3.2° 985.6 hPa 4.1 m/s 18.1 mm
18:00 4.0° 983.2 hPa 5.4 m/s 18.1 mm 4.1° 983.1 hPa 5.3 m/s 2.5° 984.3 hPa 6.0 m/s 18.1 mm
21:00 4.1° 985.7 hPa 4.8 m/s 18.2 mm 4.2° 985.9 hPa 4.8 m/s 2.4° 984.2 hPa 5.0 m/s 18.2 mm
 08:42     16:19    Daglengte: 7:37 Maandag 16 Dec
00:00 4.2° 988.3 hPa 4.2 m/s 18.3 mm 4.4° 988.6 hPa 4.2 m/s 1.9° 985.2 hPa 4.2 m/s 18.3 mm
03:00 2.4° 990.6 hPa 3.0 m/s 18.8 mm 2.4° 990.9 hPa 2.8 m/s 3.3° 987.5 hPa 6.0 m/s 18.8 mm
06:00 0.5° 993.0 hPa 1.6 m/s 19.2 mm 0.3° 993.2 hPa 1.3 m/s 2.8° 990.4 hPa 5.3 m/s 19.2 mm
09:00 2.0° 995.2 hPa 1.6 m/s 19.2 mm 2.0° 995.3 hPa 1.4 m/s 1.7° 994.1 hPa 3.7 m/s 19.2 mm
12:00 3.8° 997.4 hPa 1.7 m/s 19.2 mm 3.7° 997.4 hPa 1.5 m/s 5.0° 997.0 hPa 4.2 m/s 19.2 mm
15:00 2.9° 998.2 hPa 1.9 m/s 19.3 mm 2.8° 998.1 hPa 1.8 m/s 4.3° 998.7 hPa 2.9 m/s 19.3 mm
18:00 1.9° 999.0 hPa 2.1 m/s 19.5 mm 1.9° 998.9 hPa 2.1 m/s 1.3° 1000.7 hPa 2.5 m/s 19.5 mm
21:00 0.2° 999.8 hPa 2.0 m/s 19.5 mm 0.1° 999.5 hPa 2.0 m/s 0.7° 1002.4 hPa 2.1 m/s 19.5 mm
 08:43     16:20    Daglengte: 7:37 Dinsdag 17 Dec
00:00 -1.5° 1000.5 hPa 1.9 m/s 19.5 mm -1.7° 1000.2 hPa 1.9 m/s 0.2° 1003.3 hPa 2.1 m/s 19.5 mm
03:00 -1.8° 1000.6 hPa 1.8 m/s 19.5 mm -2.0° 1000.3 hPa 1.8 m/s -0.2° 1003.7 hPa 2.2 m/s 19.5 mm
06:00 -2.1° 1000.7 hPa 1.7 m/s 19.5 mm -2.3° 1000.4 hPa 1.6 m/s -0.1° 1004.0 hPa 2.4 m/s 19.5 mm
09:00 0.1° 1001.1 hPa 1.3 m/s 19.5 mm 0.0° 1000.8 hPa 1.1 m/s 1.6° 1004.1 hPa 2.6 m/s 19.5 mm
12:00 2.5° 1001.4 hPa 1.0 m/s 19.6 mm 2.3° 1001.2 hPa 0.7 m/s 4.7° 1003.4 hPa 4.5 m/s 19.6 mm
15:00 1.7° 1001.3 hPa 1.7 m/s 20.6 mm 1.3° 1001.2 hPa 1.2 m/s 5.3° 1001.5 hPa 6.1 m/s 20.6 mm
18:00 0.8° 1001.3 hPa 2.0 m/s 21.8 mm 0.4° 1001.3 hPa 1.8 m/s 5.2° 1001.3 hPa 4.4 m/s 21.8 mm
21:00 -0.2° 1001.5 hPa 1.9 m/s 21.9 mm -0.8° 1001.6 hPa 1.6 m/s 6.0° 1000.1 hPa 4.9 m/s 21.9 mm
 08:44     16:20    Daglengte: 7:36 Woensdag 18 Dec
00:00 -1.2° 1001.7 hPa 1.8 m/s 22.0 mm -2.0° 1002.0 hPa 1.5 m/s 7.6° 998.9 hPa 4.9 m/s 22.0 mm
03:00 0.0° 1000.8 hPa 3.0 m/s 22.0 mm -0.9° 1001.0 hPa 2.8 m/s 9.7° 998.1 hPa 5.8 m/s 22.0 mm
06:00 1.0° 999.8 hPa 4.3 m/s 22.0 mm 0.3° 1000.0 hPa 4.1 m/s 9.0° 997.2 hPa 6.0 m/s 22.0 mm
09:00 3.6° 997.2 hPa 5.5 m/s 23.7 mm 2.9° 997.4 hPa 5.3 m/s 11.7° 995.2 hPa 7.2 m/s 23.7 mm
12:00 6.0° 994.6 hPa 6.7 m/s 24.8 mm 5.4° 994.7 hPa 6.6 m/s 12.7° 993.8 hPa 7.5 m/s 24.8 mm
15:00 6.9° 991.1 hPa 5.9 m/s 26.5 mm 6.4° 990.8 hPa 6.1 m/s 11.9° 994.4 hPa 4.0 m/s 26.5 mm
18:00 7.5° 987.7 hPa 5.4 m/s 26.6 mm 7.4° 986.8 hPa 5.6 m/s 8.1° 997.1 hPa 3.6 m/s 26.7 mm
21:00 7.7° 986.1 hPa 4.6 m/s 26.6 mm 7.7° 985.0 hPa 4.6 m/s 7.7° 999.1 hPa 4.0 m/s 26.7 mm
 08:44     16:20    Daglengte: 7:36 Donderdag 19 Dec
00:00 8.0° 984.4 hPa 3.6 m/s 26.6 mm 8.0° 983.1 hPa 3.6 m/s 7.8° 998.3 hPa 4.1 m/s 26.7 mm
03:00 7.7° 982.8 hPa 3.7 m/s 26.7 mm 7.6° 981.7 hPa 3.8 m/s 9.0° 995.1 hPa 3.7 m/s 26.7 mm
06:00 7.4° 981.4 hPa 4.0 m/s 26.7 mm 7.2° 980.3 hPa 3.9 m/s 9.7° 993.6 hPa 4.6 m/s 26.7 mm
09:00 7.9° 982.2 hPa 3.8 m/s 26.7 mm 7.7° 981.1 hPa 3.7 m/s 10.1° 994.0 hPa 5.0 m/s 26.7 mm
12:00 8.4° 982.9 hPa 3.6 m/s 26.8 mm 8.2° 981.9 hPa 3.5 m/s 11.0° 994.3 hPa 4.8 m/s 26.8 mm
18:00 6.9° 975.9 hPa 6.3 m/s 27.0 mm 6.7° 974.1 hPa 6.5 m/s 8.7° 995.2 hPa 3.6 m/s 27.0 mm
 08:45     16:21    Daglengte: 7:36 Vrijdag 20 Dec
00:00 8.0° 964.1 hPa 8.4 m/s 27.3 mm 8.0° 961.3 hPa 9.0 m/s 8.0° 994.6 hPa 1.6 m/s 27.3 mm
06:00 7.4° 959.4 hPa 5.7 m/s 27.7 mm 7.6° 956.0 hPa 6.0 m/s 5.2° 996.5 hPa 1.9 m/s 27.7 mm
12:00 7.8° 967.5 hPa 6.7 m/s 27.7 mm 7.8° 964.6 hPa 7.0 m/s 7.5° 999.2 hPa 3.1 m/s 27.7 mm
18:00 7.1° 974.0 hPa 6.4 m/s 27.7 mm 7.3° 971.8 hPa 6.7 m/s 4.9° 998.7 hPa 3.6 m/s 27.7 mm
 08:45     16:21    Daglengte: 7:36 Zaterdag 21 Dec
00:00 5.9° 978.6 hPa 4.0 m/s 28.4 mm 6.0° 976.5 hPa 4.1 m/s 4.4° 1001.2 hPa 2.8 m/s 28.4 mm
06:00 4.7° 980.5 hPa 3.7 m/s 28.8 mm 4.8° 978.5 hPa 3.7 m/s 3.9° 1002.5 hPa 3.1 m/s 28.8 mm
12:00 7.2° 982.2 hPa 3.8 m/s 29.5 mm 7.2° 980.0 hPa 3.9 m/s 7.6° 1006.2 hPa 3.0 m/s 29.5 mm
18:00 5.9° 984.2 hPa 3.0 m/s 29.8 mm 5.8° 982.4 hPa 2.6 m/s 7.1° 1003.8 hPa 7.5 m/s 29.8 mm
 08:46     16:22    Daglengte: 7:36 Zondag 22 Dec
00:00 9.8° 998.3 hPa 8.2 m/s 31.7 mm 9.8° 998.3 hPa 8.2 m/s 31.7 mm
06:00 6.2° 995.2 hPa 5.0 m/s 1.6 mm
12:00 7.5° 997.9 hPa 5.7 m/s 0.8 mm
18:00 6.5° 998.6 hPa 5.3 m/s 1.0 mm
 08:46     16:22    Daglengte: 7:36 Maandag 23 Dec
00:00 6.2° 997.9 hPa 4.9 m/s 1.5 mm
06:00 5.8° 996.3 hPa 5.4 m/s 1.5 mm
12:00 7.0° 997.1 hPa 4.3 m/s 1.2 mm
18:00 6.1° 996.3 hPa 3.6 m/s 0.9 mm
 08:47     16:23    Daglengte: 7:36 Dinsdag 24 Dec
00:00 5.8° 996.5 hPa 3.6 m/s 1.4 mm
06:00 4.9° 996.5 hPa 3.6 m/s 0.7 mm
12:00 6.8° 999.3 hPa 3.4 m/s 0.4 mm
18:00 4.7° 1000.9 hPa 2.2 m/s 1.0 mm
 08:47     16:23    Daglengte: 7:36 Woensdag 25 Dec
00:00 4.0° 1003.1 hPa 2.2 m/s 0.4 mm
06:00 3.9° 1004.9 hPa 1.4 m/s 0.7 mm
12:00 6.0° 1008.1 hPa 1.5 m/s 0.2 mm
18:00 4.0° 1009.9 hPa 2.0 m/s 0.2 mm
 08:47     16:24    Daglengte: 7:37 Donderdag 26 Dec
00:00 3.7° 1010.4 hPa 3.0 m/s 0.8 mm
06:00 4.3° 1008.8 hPa 2.4 m/s 1.6 mm
12:00 6.4° 1008.6 hPa 2.2 m/s 0.6 mm
18:00 5.3° 1006.1 hPa 2.6 m/s 1.2 mm
 08:47     16:25    Daglengte: 7:38 Vrijdag 27 Dec
00:00 5.2° 1004.8 hPa 3.1 m/s 2.3 mm
06:00 4.4° 1004.9 hPa 2.3 m/s 1.7 mm
FMI Hirlam - 7.5 km EWN WRFDA - 12 km DWD ICON - 7 km GFS - 25 km Basiskaart






























































Updatetijd (Europe/Amsterdam) Resolutie Lengte Stap
FMI Hirlam 12:15, 18:15, 00:15, 06:15 7.5 km 49h 1h
EWN WRFDA 08:30, 14:30, 20:30, 02:30 12 km 73h 1h
DWD ICON 10:45, 16:45, 22:45, 04:45 7 km 75h 1h
GFS 08:30, 14:30, 20:30, 02:30 25 km 237h 3h
30+ mm
25-30 mm
20-25 mm
15-20 mm
10-15 mm
6-10 mm
4-6 mm
2-4 mm
1-2 mm
0.5-1 mm
0.2-0.5 mm
0.1-0.2 mm
30+ mm
25-30 mm
20-25 mm
15-20 mm
10-15 mm
6-10 mm
4-6 mm
2-4 mm
1-2 mm
0.5-1 mm
0.2-0.5 mm
0.1-0.2 mm
Sneeuwval
Natte sneeuw
Hagel
Vorst
30+ mm
25-30 mm
20-25 mm
15-20 mm
10-15 mm
6-10 mm
4-6 mm
2-4 mm
1-2 mm
0.5-1 mm
0.2-0.5 mm
0.1-0.2 mm
Sneeuwval
Natte sneeuw
Hagel
Vorst
Onweer
50 mm
40 mm
30 mm
26 mm
22 mm
18 mm
14 mm
10 mm
9 mm
8 mm
7 mm
6 mm
5 mm
4.5 mm
4 mm
3.5 mm
3 mm
2.5 mm
2 mm
1.5 mm
1 mm
0.8 mm
0.6 mm
0.4 mm
0.2 mm
0.05 mm
35°
30°
25°
20°
15°
10°
-5°
-10°
-15°
-20°
-25°
-30°
-35°
120> km/h
105 km/h
90 km/h
75 km/h
60 km/h
50 km/h
40 km/h
30 km/h
20 km/h
10 km/h
0 km/h
2600 J/kg
2400 J/kg
2200 J/kg
2000 J/kg
1800 J/kg
1600 J/kg
1400 J/kg
1200 J/kg
1000 J/kg
800 J/kg
600 J/kg
400 J/kg
200 J/kg
70 dBZ
65 dBZ
60 dBZ
55 dBZ
50 dBZ
45 dBZ
40 dBZ
35 dBZ
30 dBZ
25 dBZ
20 dBZ
15 dBZ
10 dBZ
5 dBZ
-1 K
-2 K
-3 K
-4 K
-5 K
-6 K
-7 K
-8 K
-9 K
950 m²/s²
900 m²/s²
850 m²/s²
800 m²/s²
750 m²/s²
700 m²/s²
650 m²/s²
600 m²/s²
550 m²/s²
500 m²/s²
450 m²/s²
400 m²/s²
350 m²/s²
300 m²/s²
250 m²/s²
200 m²/s²
150 m²/s²
100 m²/s²
46 m/s
44 m/s
42 m/s
40 m/s
38 m/s
36 m/s
34 m/s
32 m/s
30 m/s
28 m/s
26 m/s
24 m/s
22 m/s
20 m/s
16 m/s
12 m/s
8 m/s
4 m/s
30 m/s
28 m/s
26 m/s
24 m/s
22 m/s
20 m/s
18 m/s
16 m/s
14 m/s
12 m/s
10 m/s
8 m/s
6 m/s
4 m/s
2 m/s
3.0
2.8
2.6
2.4
2.2
2.0
1.8
1.6
1.4
1.2
1.0
0.8
0.6
0.4
0.2
15
14
13
12
11
10
9
8
7
6
5
4
3
2
1
90%
80%
70%
60%
50%
40%
30%
20%
10%
42
40
38
36
34
32
30
28
26
24
22
20
18
16
14
12
90+ cm
80-90 cm
70-80 cm
60-70 cm
50-60 cm
40-50 cm
30-40 cm
20-30 cm
10-20 cm
1-10 cm
Sneeuwval
Natte sneeuw
Regen
>120 mm
115 mm
110 mm
105 mm
100 mm
95 mm
90 mm
85 mm
80 mm
75 mm
70 mm
65 mm
60 mm
55 mm
50 mm
45 mm
45 mm
40 mm
35 mm
30 mm
25 mm
20 mm
15 mm
10 mm
5 mm
0.1 mm
960 hPa
880 hPa
800 hPa
720 hPa
640 hPa
560 hPa
584 gpdm
568 gpdm
552 gpdm
536 gpdm
520 gpdm
504 gpdm
488 gpdm
Extreem zwaar Noodweer Kans op onweer
15% 15% 5% 50% 15%

Dag




Kaart






35°
30°
25°
20°
15°
10°
-5°
-10°
-15°
-20°
-25°
-30°
-35°
120> km/h
105 km/h
90 km/h
75 km/h
60 km/h
50 km/h
40 km/h
30 km/h
20 km/h
10 km/h
0 km/h
Extreem zwaar Noodweer Kans op onweer
15% 15% 5% 50% 15%
>120 mm
115 mm
110 mm
105 mm
100 mm
95 mm
90 mm
85 mm
80 mm
75 mm
70 mm
65 mm
60 mm
55 mm
50 mm
45 mm
45 mm
40 mm
35 mm
30 mm
25 mm
20 mm
15 mm
10 mm
5 mm